Time,TemperatureF,DewpointF,PressureIn,WindDirection,WindDirectionDegrees,WindSpeedMPH,WindSpeedGustMPH,Humidity,HourlyPrecipIn,Conditions,Clouds,dailyrainin,SoftwareType,DateUTC
2013-01-19 00:00:00,-3.4,-15.6,30.24,North,0,0.0,3.0,55,0.00,,,0.00,Wunderground v.1.13,2013-01-19 05:00:00,
2013-01-19 00:10:00,-3.7,-15.8,30.24,North,357,0.0,0.0,55,0.00,,,0.00,Wunderground v.1.13,2013-01-19 05:10:00,
2013-01-19 00:30:00,-1.2,-14.6,30.24,NNE,17,1.0,1.0,52,0.00,,,0.00,Wunderground v.1.13,2013-01-19 05:30:00,
2013-01-19 00:40:00,-0.8,-14.6,30.24,North,10,1.0,5.0,51,0.00,,,0.00,Wunderground v.1.13,2013-01-19 05:40:00,
2013-01-19 00:50:00,-0.8,-14.2,30.24,North,1,1.0,1.0,52,0.00,,,0.00,Wunderground v.1.13,2013-01-19 05:50:00,
2013-01-19 01:00:00,-1.6,-15.0,30.24,North,1,0.0,0.0,52,0.00,,,0.00,Wunderground v.1.13,2013-01-19 06:00:00,
2013-01-19 01:10:00,-3.5,-15.3,30.24,North,1,0.0,0.0,56,0.00,,,0.00,Wunderground v.1.13,2013-01-19 06:10:00,
2013-01-19 01:30:00,-3.7,-14.5,30.25,North,1,1.0,2.0,59,0.00,,,0.00,Wunderground v.1.13,2013-01-19 06:30:00,
2013-01-19 01:40:00,-2.4,-14.6,30.25,North,352,2.0,2.0,55,0.00,,,0.00,Wunderground v.1.13,2013-01-19 06:40:00,
2013-01-19 01:51:00,-1.6,-14.6,30.25,NNW,337,3.0,3.0,53,0.00,,,0.00,Wunderground v.1.13,2013-01-19 06:51:00,
2013-01-19 02:00:00,-1.2,-14.6,30.25,NNW,339,3.0,3.0,52,0.00,,,0.00,Wunderground v.1.13,2013-01-19 07:00:00,
2013-01-19 02:10:00,-1.0,-14.0,30.25,NNW,342,2.0,2.0,53,0.00,,,0.00,Wunderground v.1.13,2013-01-19 07:10:00,
2013-01-19 02:30:00,-1.0,-14.0,30.24,North,349,2.0,2.0,53,0.00,,,0.00,Wunderground v.1.13,2013-01-19 07:30:00,
2013-01-19 02:40:00,-1.2,-13.9,30.24,NNW,340,2.0,2.0,54,0.00,,,0.00,Wunderground v.1.13,2013-01-19 07:40:00,
2013-01-19 02:50:00,-1.4,-14.0,30.24,NNW,335,2.0,2.0,54,0.00,,,0.00,Wunderground v.1.13,2013-01-19 07:50:00,
2013-01-19 03:00:00,-1.6,-13.9,30.23,NNW,335,0.0,0.0,55,0.00,,,0.00,Wunderground v.1.13,2013-01-19 08:00:00,
2013-01-19 03:10:00,-2.6,-14.5,30.23,NNW,335,0.0,0.0,56,0.00,,,0.00,Wunderground v.1.13,2013-01-19 08:10:00,
2013-01-19 03:30:00,-2.8,-13.9,30.23,NNW,335,0.0,0.0,58,0.00,,,0.00,Wunderground v.1.13,2013-01-19 08:30:00,
2013-01-19 03:40:00,-3.3,-14.1,30.23,NNW,335,0.0,0.0,59,0.00,,,0.00,Wunderground v.1.13,2013-01-19 08:40:00,
2013-01-19 03:51:00,-4.1,-14.5,30.22,NNW,335,0.0,0.0,60,0.00,,,0.00,Wunderground v.1.13,2013-01-19 08:51:00,
2013-01-19 04:00:00,-4.8,-14.8,30.21,NNW,335,0.0,0.0,61,0.00,,,0.00,Wunderground v.1.13,2013-01-19 09:00:00,
2013-01-19 04:10:00,-4.8,-14.2,30.21,NNW,335,0.0,0.0,63,0.00,,,0.00,Wunderground v.1.13,2013-01-19 09:10:00,
2013-01-19 04:30:00,-3.7,-12.8,30.19,NNW,335,0.0,0.0,64,0.00,,,0.00,Wunderground v.1.13,2013-01-19 09:30:00,
2013-01-19 04:40:00,-2.8,-12.3,30.19,NNW,335,0.0,0.0,63,0.00,,,0.00,Wunderground v.1.13,2013-01-19 09:40:00,
2013-01-19 05:00:00,-3.5,-13.6,30.18,NNW,335,0.0,0.0,61,0.00,,,0.00,Wunderground v.1.13,2013-01-19 10:00:00,
2013-01-19 05:10:00,-3.5,-13.3,30.18,NNW,335,0.0,0.0,62,0.00,,,0.00,Wunderground v.1.13,2013-01-19 10:10:00,
2013-01-19 05:21:00,-3.3,-13.1,30.18,NNW,335,0.0,0.0,62,0.00,,,0.00,Wunderground v.1.13,2013-01-19 10:21:00,
2013-01-19 05:30:00,-2.4,-11.0,30.17,NNW,335,0.0,0.0,66,0.00,,,0.00,Wunderground v.1.13,2013-01-19 10:30:00,
2013-01-19 05:40:00,-1.2,-9.8,30.17,NNW,335,0.0,0.0,66,0.00,,,0.00,Wunderground v.1.13,2013-01-19 10:40:00,
2013-01-19 06:00:00,0.7,-8.6,30.16,NNW,335,1.0,1.0,64,0.00,,,0.00,Wunderground v.1.13,2013-01-19 11:00:00,
2013-01-19 06:10:00,1.1,-7.6,30.16,NNW,335,1.0,2.0,66,0.00,,,0.00,Wunderground v.1.13,2013-01-19 11:10:00,
2013-01-19 07:10:00,0.3,-7.2,30.14,NNW,338,0.0,1.0,70,0.00,,,0.00,Wunderground v.1.13,2013-01-19 12:10:00,
2013-01-19 07:20:00,0.3,-7.2,30.14,NNW,338,0.0,1.0,70,0.00,,,0.00,Wunderground v.1.13,2013-01-19 12:20:00,
2013-01-19 07:30:00,0.3,-6.3,30.13,NNW,338,0.0,3.0,73,0.00,,,0.00,Wunderground v.1.13,2013-01-19 12:30:00,
2013-01-19 07:40:00,0.8,-5.5,30.13,NNW,338,0.0,3.0,74,0.00,,,0.00,Wunderground v.1.13,2013-01-19 12:40:00,
2013-01-19 07:50:00,0.8,-5.5,30.13,NNW,338,0.0,3.0,74,0.00,,,0.00,Wunderground v.1.13,2013-01-19 12:50:00,
2013-01-19 08:10:00,3.9,-2.8,30.13,NNW,344,0.0,0.0,73,0.00,,,0.00,Wunderground v.1.13,2013-01-19 13:10:00,
2013-01-19 08:21:00,4.5,-2.3,30.12,North,359,1.0,1.0,73,0.00,,,0.00,Wunderground v.1.13,2013-01-19 13:21:00,
2013-01-19 08:30:00,5.0,-1.8,30.12,North,353,1.0,1.0,73,0.00,,,0.00,Wunderground v.1.13,2013-01-19 13:30:00,
2013-01-19 08:40:00,5.6,-1.5,30.12,North,352,1.0,3.0,72,0.00,,,0.00,Wunderground v.1.13,2013-01-19 13:40:00,
2013-01-19 08:51:00,6.1,-1.3,30.12,North,352,1.0,1.0,71,0.00,,,0.00,Wunderground v.1.13,2013-01-19 13:51:00,
2013-01-19 09:00:00,6.5,-0.9,30.11,North,350,1.0,2.0,71,0.00,,,0.00,Wunderground v.1.13,2013-01-19 14:00:00,
2013-01-19 09:10:00,6.9,-0.5,30.11,NNW,335,2.0,2.0,71,0.00,,,0.00,Wunderground v.1.13,2013-01-19 14:10:00,
2013-01-19 09:21:00,7.6,0.2,30.11,NNW,336,1.0,1.0,71,0.00,,,0.00,Wunderground v.1.13,2013-01-19 14:21:00,
2013-01-19 09:30:00,8.1,0.3,30.10,NNW,336,0.0,2.0,70,0.00,,,0.00,Wunderground v.1.13,2013-01-19 14:30:00,
2013-01-19 09:40:00,8.3,0.5,30.10,NNW,336,1.0,1.0,70,0.00,,,0.00,Wunderground v.1.13,2013-01-19 14:40:00,
2013-01-19 10:00:00,9.2,1.7,30.09,NNW,336,1.0,1.0,71,0.00,,,0.00,Wunderground v.1.13,2013-01-19 15:00:00,
2013-01-19 11:00:00,12.4,4.5,30.04,NNW,342,2.0,2.0,70,0.00,,,0.00,Wunderground v.1.13,2013-01-19 16:00:00,
2013-01-19 11:10:00,12.9,5.3,30.04,NNW,343,1.0,1.0,71,0.00,,,0.00,Wunderground v.1.13,2013-01-19 16:10:00,
2013-01-19 11:30:00,13.6,5.9,30.02,NNW,343,2.0,2.0,71,0.00,,,0.00,Wunderground v.1.13,2013-01-19 16:30:00,
2013-01-19 11:40:00,13.8,5.8,30.02,NNW,343,1.0,1.0,70,0.00,,,0.00,Wunderground v.1.13,2013-01-19 16:40:00,
2013-01-19 12:00:00,14.9,6.6,30.00,NNW,343,1.0,1.0,69,0.00,,,0.00,Wunderground v.1.13,2013-01-19 17:00:00,
2013-01-19 12:10:00,15.6,7.2,30.00,NNW,343,0.0,0.0,69,0.00,,,0.00,Wunderground v.1.13,2013-01-19 17:10:00,
2013-01-19 12:30:00,16.4,7.3,29.99,North,359,1.0,1.0,67,0.00,,,0.00,Wunderground v.1.13,2013-01-19 17:30:00,
2013-01-19 12:40:00,16.6,7.9,29.98,North,0,1.0,3.0,68,0.00,,,0.00,Wunderground v.1.13,2013-01-19 17:40:00,
2013-01-19 12:50:00,17.2,8.4,29.98,North,359,1.0,1.0,68,0.00,,,0.00,Wunderground v.1.13,2013-01-19 17:50:00,
2013-01-19 13:00:00,17.5,8.1,29.98,SW,229,0.0,3.0,66,0.00,,,0.00,Wunderground v.1.13,2013-01-19 18:00:00,
2013-01-19 13:10:00,17.0,8.9,29.98,SE,145,1.0,1.0,70,0.00,,,0.00,Wunderground v.1.13,2013-01-19 18:10:00,
2013-01-19 13:30:00,18.0,9.2,29.98,SE,145,0.0,0.0,68,0.00,,,0.00,Wunderground v.1.13,2013-01-19 18:30:00,
2013-01-19 13:40:00,17.8,9.0,29.98,SE,145,0.0,0.0,68,0.00,,,0.00,Wunderground v.1.13,2013-01-19 18:40:00,
2013-01-19 14:00:00,18.6,9.8,29.97,SE,145,0.0,0.0,68,0.00,,,0.00,Wunderground v.1.13,2013-01-19 19:00:00,
2013-01-19 14:10:00,18.1,10.0,29.97,SE,145,1.0,1.0,70,0.00,,,0.00,Wunderground v.1.13,2013-01-19 19:10:00,
2013-01-19 14:30:00,17.7,10.2,29.97,SE,145,1.0,1.0,72,0.00,,,0.00,Wunderground v.1.13,2013-01-19 19:30:00,
2013-01-19 14:40:00,17.7,10.8,29.97,SE,135,0.0,2.0,74,0.00,,,0.00,Wunderground v.1.13,2013-01-19 19:40:00,
2013-01-19 14:50:00,17.7,10.8,29.97,SE,135,0.0,2.0,74,0.00,,,0.00,Wunderground v.1.13,2013-01-19 19:50:00,
2013-01-19 14:51:00,17.5,10.6,29.97,SE,145,1.0,1.0,74,0.00,,,0.00,Wunderground v.1.13,2013-01-19 19:51:00,
2013-01-19 15:00:00,17.3,10.7,29.98,SE,145,1.0,1.0,75,0.00,,,0.00,Wunderground v.1.13,2013-01-19 20:00:00,
2013-01-19 15:10:00,17.2,10.9,29.98,SE,145,0.0,0.0,76,0.00,,,0.00,Wunderground v.1.13,2013-01-19 20:10:00,
2013-01-19 15:30:00,17.2,11.2,29.98,SE,145,0.0,0.0,77,0.00,,,0.00,Wunderground v.1.13,2013-01-19 20:30:00,
2013-01-19 15:40:00,16.9,11.2,29.98,SE,145,0.0,0.0,78,0.00,,,0.00,Wunderground v.1.13,2013-01-19 20:40:00,
2013-01-19 16:00:00,16.4,11.0,29.99,SE,145,0.0,0.0,79,0.00,,,0.00,Wunderground v.1.13,2013-01-19 21:00:00,
2013-01-19 16:10:00,16.1,11.0,29.99,SE,145,0.0,1.0,80,0.00,,,0.00,Wunderground v.1.13,2013-01-19 21:10:00,
2013-01-19 16:40:00,15.6,11.1,30.00,SE,145,0.0,0.0,82,0.00,,,0.00,Wunderground v.1.13,2013-01-19 21:40:00,
2013-01-19 17:00:00,15.4,10.9,30.01,SE,145,0.0,0.0,82,0.00,,,0.00,Wunderground v.1.13,2013-01-19 22:00:00,
2013-01-19 17:10:00,15.1,10.6,30.01,SE,145,0.0,0.0,82,0.00,,,0.00,Wunderground v.1.13,2013-01-19 22:10:00,
2013-01-19 17:30:00,14.4,9.9,30.01,SE,145,0.0,0.0,82,0.00,,,0.00,Wunderground v.1.13,2013-01-19 22:30:00,
2013-01-19 17:40:00,14.4,9.9,30.01,SE,145,0.0,0.0,82,0.00,,,0.00,Wunderground v.1.13,2013-01-19 22:40:00,
2013-01-19 18:10:00,14.4,10.4,30.04,SE,135,0.0,1.0,84,0.00,,,0.00,Wunderground v.1.13,2013-01-19 23:10:00,
2013-01-19 18:40:00,14.4,10.4,30.05,SE,145,0.0,0.0,84,0.00,,,0.00,Wunderground v.1.13,2013-01-19 23:40:00,
2013-01-19 19:00:00,14.4,10.4,30.06,SE,145,0.0,0.0,84,0.00,,,0.00,Wunderground v.1.13,2013-01-20 00:00:00,
2013-01-19 19:10:00,14.3,10.4,30.06,SE,145,0.0,0.0,84,0.00,,,0.00,Wunderground v.1.13,2013-01-20 00:10:00,
2013-01-19 19:30:00,13.8,9.6,30.06,SE,145,0.0,0.0,83,0.00,,,0.00,Wunderground v.1.13,2013-01-20 00:30:00,
2013-01-19 19:40:00,13.6,9.4,30.06,SE,145,0.0,0.0,83,0.00,,,0.00,Wunderground v.1.13,2013-01-20 00:40:00,
2013-01-19 20:00:00,13.5,9.3,30.05,SE,145,0.0,0.0,83,0.00,,,0.00,Wunderground v.1.13,2013-01-20 01:00:00,
2013-01-19 20:10:00,13.4,9.2,30.05,N/A,-737280,0.0,0.0,83,0.00,,,0.00,Wunderground v.1.13,2013-01-20 01:10:00,
2013-01-19 20:30:00,13.1,8.9,30.06,SE,145,0.0,0.0,83,0.00,,,0.00,Wunderground v.1.13,2013-01-20 01:30:00,
2013-01-19 20:40:00,12.9,8.7,30.06,SE,145,0.0,0.0,83,0.00,,,0.00,Wunderground v.1.13,2013-01-20 01:40:00,
2013-01-19 21:00:00,12.8,8.6,30.06,SE,145,0.0,0.0,83,0.00,,,0.00,Wunderground v.1.13,2013-01-20 02:00:00,
2013-01-19 21:10:00,13.3,9.4,30.06,SE,145,0.0,0.0,84,0.00,,,0.00,Wunderground v.1.13,2013-01-20 02:10:00,
2013-01-19 21:21:00,13.6,9.9,30.05,SE,145,0.0,0.0,85,0.00,,,0.00,Wunderground v.1.13,2013-01-20 02:21:00,
2013-01-19 21:30:00,14.0,10.3,30.05,SE,145,0.0,0.0,85,0.00,,,0.00,Wunderground v.1.13,2013-01-20 02:30:00,
2013-01-19 21:40:00,14.6,11.2,30.05,SE,145,0.0,0.0,86,0.00,,,0.00,Wunderground v.1.13,2013-01-20 02:40:00,
2013-01-19 22:00:00,15.2,11.8,30.05,SW,226,0.0,0.0,86,0.00,,,0.00,Wunderground v.1.13,2013-01-20 03:00:00,
2013-01-19 22:10:00,15.6,11.6,30.05,SW,223,0.0,0.0,84,0.00,,,0.00,Wunderground v.1.13,2013-01-20 03:10:00,
2013-01-19 22:30:00,15.6,11.4,30.04,SSW,213,0.0,0.0,83,0.00,,,0.00,Wunderground v.1.13,2013-01-20 03:30:00,
2013-01-19 22:40:00,15.6,11.1,30.04,SW,233,0.0,0.0,82,0.00,,,0.00,Wunderground v.1.13,2013-01-20 03:40:00,
2013-01-19 22:50:00,15.6,11.1,30.05,West,278,1.0,1.0,82,0.00,,,0.00,Wunderground v.1.13,2013-01-20 03:50:00,
2013-01-19 23:10:00,15.4,10.9,30.04,SSW,206,0.0,0.0,82,0.00,,,0.00,Wunderground v.1.13,2013-01-20 04:10:00,
2013-01-19 23:30:00,15.1,10.6,30.02,SW,233,0.0,0.0,82,0.00,,,0.00,Wunderground v.1.13,2013-01-20 04:30:00,
2013-01-19 23:40:00,14.9,10.1,30.02,West,261,0.0,3.0,81,0.00,,,0.00,Wunderground v.1.13,2013-01-20 04:40:00,